Location: El Álamo
(40.2307°N, 3.9945°W)
Time: 00:42:27
(UTC+00:00)

COSMOS 2406 - Pass Details

Date: 19 May 2025
Orbit: 845 x 859 km, 71.0° (Epoch: 24 June)

Event Time Altitude Azimuth Distance (km) Brightness Sun altitude
Exits shadow 21:59:09 28° 89° (E) 1,537 4.2 -22.3°
Drops below altitude 10° 22:03:13 10° 45° (NE) 2,480 5.8 -22.7°
Sets 22:05:58 0° 35° (NE) 3,423 6.7 -23.0°
